Milford, UT

5:56 PM MST on December 05, 2016 (GMT -0700)
Milford Municipal

Weather History for KMLF - February, 2014

Change the Weather History Date:

Wednesday, February 19, 2014

  Actual Average Record
Temperature  
Mean Temperature 44 °F -  
Max Temperature 61 °F 43 °F 64 °F (2015)
Min Temperature 21 °F 22 °F 10 °F (2012)
Degree Days  
Heating Degree Days 22    
Moisture  
Dew Point 16 °F    
Average Humidity 38    
Maximum Humidity 63    
Minimum Humidity 11    
Precipitation  
Precipitation 0.00 in - - ()
Sea Level Pressure  
Sea Level Pressure 29.88 in    
Wind  
Wind Speed 14 mph (WNW)    
Max Wind Speed 38 mph    
Max Gust Speed 55 mph    
Visibility 10 miles    
Events Rain    
Averages and records for this station are not official NWS values.
T = Trace of Precipitation, MM = Missing Value Source: NWS Daily Summary

Daily Weather History Graph

Daily Weather History Graph

Search for Another Location

Airport or City:

Trip Planner

Search our weather history database for the weather conditions in past years. The results will help you decide how hot, cold, wet, or windy it might be!

Date:

Astronomy

Feb. 19, 2014 Rise Set
Actual Time 7:17 AM MST 6:14 PM MST
Civil Twilight 6:50 AM MST 6:41 PM MST
Nautical Twilight 6:19 AM MST 7:12 PM MST
Astronomical Twilight 5:49 AM MST 7:43 PM MST
Moon 11:07 PM MST (2/19) 9:29 AM MST (2/19)
Length of Visible Light 11h 51m
Length of Day
10h 57m
Waning Gibbous, 79% of the Moon is Illuminated
Feb 19
Waning Gibbous
Feb 22
Last Quarter
Mar 1
New
Mar 8
First Quarter
Mar 16
Full

Hourly Weather History & Observations

Time (MST) Temp. Windchill Dew Point Humidity Pressure Visibility Wind Dir Wind Speed Gust Speed Precip Events Conditions
12:52 AM 30.0 °F 23.2 °F 15.1 °F 54% 29.94 in 10.0 mi South 6.9 mph - N/A   Clear
1:52 AM 30.9 °F 23.5 °F 16.0 °F 54% 29.92 in 10.0 mi SSW 8.1 mph - N/A   Scattered Clouds
2:52 AM 34.0 °F 26.6 °F 17.1 °F 50% 29.88 in 10.0 mi SSW 9.2 mph - N/A   Clear
3:52 AM 33.1 °F 26.9 °F 15.1 °F 48% 29.86 in 10.0 mi SSW 6.9 mph - N/A   Clear
4:52 AM 39.9 °F 31.4 °F 10.0 °F 29% 29.81 in 10.0 mi South 16.1 mph - N/A   Clear
5:52 AM 39.9 °F 30.8 °F 10.0 °F 29% 29.80 in 10.0 mi SSW 18.4 mph - N/A   Clear
6:52 AM 41.0 °F 32.2 °F 10.0 °F 28% 29.81 in 10.0 mi SW 18.4 mph - N/A   Clear
7:52 AM 33.1 °F 23.4 °F 12.0 °F 42% 29.83 in 10.0 mi SSW 13.8 mph - N/A   Clear
8:52 AM 39.0 °F 31.4 °F 14.0 °F 36% 29.79 in 10.0 mi SSW 12.7 mph - N/A   Partly Cloudy
9:52 AM 48.0 °F - 12.0 °F 24% 29.77 in 10.0 mi SSW 12.7 mph - N/A   Mostly Cloudy
10:52 AM 51.1 °F - 12.9 °F 22% 29.74 in 10.0 mi South 16.1 mph - N/A   Overcast
11:21 AM 55.0 °F - 14.0 °F 20% 29.79 in 10.0 mi WSW 17.3 mph 29.9 mph N/A   Overcast
11:52 AM 54.0 °F - 16.0 °F 22% 29.75 in 10.0 mi SW 23.0 mph 55.2 mph N/A   Overcast
12:44 PM 59.0 °F - 21.9 °F 24% 29.77 in 10.0 mi NNW 28.8 mph 38.0 mph N/A   Scattered Clouds
12:52 PM 55.9 °F - 21.0 °F 26% 29.74 in 10.0 mi NNW 27.6 mph 41.4 mph N/A   Mostly Cloudy
1:52 PM 53.1 °F - 21.0 °F 29% 29.76 in 10.0 mi NNW 32.2 mph 42.6 mph N/A   Scattered Clouds
2:02 PM 52.0 °F - 23.0 °F 32% 29.81 in 10.0 mi North 38.0 mph 46.0 mph N/A   Scattered Clouds
2:52 PM 46.0 °F 38.5 °F 25.0 °F 44% 29.81 in 10.0 mi NNE 19.6 mph - 0.00 in   Scattered Clouds
3:52 PM 45.0 °F 38.5 °F 27.0 °F 49% 29.86 in 10.0 mi NNE 13.8 mph 24.2 mph N/A   Overcast
4:52 PM 39.9 °F 31.8 °F 28.0 °F 63% 29.87 in 10.0 mi NE 15.0 mph - 0.00 in   Overcast
5:52 PM 39.0 °F 29.9 °F 27.0 °F 62% 29.91 in 10.0 mi NE 17.3 mph 25.3 mph 0.00 in Rain Light Rain
6:52 PM 36.0 °F 28.5 °F 21.9 °F 57% 29.96 in 10.0 mi NNE 10.4 mph - 0.00 in   Partly Cloudy
7:52 PM 34.0 °F 24.6 °F 17.1 °F 50% 30.03 in 10.0 mi NNE 13.8 mph - N/A   Clear
8:52 PM 30.9 °F 20.2 °F 12.0 °F 46% 30.07 in 10.0 mi NNE 15.0 mph - N/A   Clear
9:52 PM 28.0 °F 17.5 °F 8.1 °F 43% 30.09 in 10.0 mi NNE 12.7 mph - N/A   Clear
10:52 PM 26.1 °F 15.0 °F 8.1 °F 47% 30.10 in 10.0 mi NNE 12.7 mph - N/A   Clear
11:52 PM 21.0 °F 10.6 °F 8.1 °F 57% 30.14 in 10.0 mi North 9.2 mph - N/A   Clear